Kalispell, MT

4:06 PM MST on February 24, 2017 (GMT -0700)
Glacier Park International

Weather History for KGPI - September, 2011

Change the Weather History Date:

Friday, September 23, 2011

  Actual Average Record
Temperature  
Mean Temperature 65 °F 51 °F  
Max Temperature 87 °F 67 °F 87 °F (2011)
Min Temperature 42 °F 36 °F 13 °F (1926)
Degree Days  
Heating Degree Days 0 14  
Month to date heating degree days 163 222  
Since 1 July heating degree days 309 392  
Cooling Degree Days 0 0  
Month to date cooling degree days 8 1  
Year to date cooling degree days 97 144  
Growing Degree Days 14 (Base 50)    
Moisture  
Dew Point 42 °F    
Average Humidity 56    
Maximum Humidity 96    
Minimum Humidity 15    
Precipitation  
Precipitation 0.00 in 0.05 in 1.21 in (1930)
Month to date precipitation 0.47 1.11  
Year to date precipitation 13.15 12.72  
Snow  
Snow 0.00 in - - ()
Month to date snowfall 0.0  
Year to date snowfall 27.0  
Since 1 July snowfall 0.0  
Snow Depth 0.00 in    
Sea Level Pressure  
Sea Level Pressure 30.07 in    
Wind  
Wind Speed 5 mph (South)    
Max Wind Speed 20 mph    
Max Gust Speed 24 mph    
Visibility 10 miles    
Events      
T = Trace of Precipitation, MM = Missing Value Source: NWS Daily Summary

Daily Weather History Graph

Daily Weather History Graph

Search for Another Location

Airport or City:

Trip Planner

Search our weather history database for the weather conditions in past years. The results will help you decide how hot, cold, wet, or windy it might be!

Date:

Astronomy

Sep. 23, 2011 Rise Set
Actual Time 7:24 AM MDT 7:33 PM MDT
Civil Twilight 6:53 AM MDT 8:04 PM MDT
Nautical Twilight 6:16 AM MDT 8:40 PM MDT
Astronomical Twilight 5:38 AM MDT 9:18 PM MDT
Moon 2:36 AM MDT (9/23) 5:22 PM MDT (9/23)
Length of Visible Light 13h 10m
Length of Day
12h 08m
Waning Crescent, 19% of the Moon is Illuminated
Sep 23
Waning Crescent
Sep 27
New
Oct 3
First Quarter
Oct 11
Full
Oct 19
Last Quarter

Hourly Weather History & Observations

Time (MDT) Temp. Windchill Dew Point Humidity Pressure Visibility Wind Dir Wind Speed Gust Speed Precip Events Conditions
12:55 AM 46.9 °F - 43.0 °F 86% 30.10 in 10.0 mi NNE 8.1 mph - N/A   Clear
1:55 AM 46.0 °F - 42.1 °F 86% 30.10 in 10.0 mi Calm Calm - N/A   Clear
2:55 AM 45.0 °F 43.5 °F 43.0 °F 93% 30.10 in 10.0 mi NNE 3.5 mph - N/A   Clear
3:55 AM 43.0 °F - 41.0 °F 93% 30.10 in 10.0 mi Calm Calm - N/A   Clear
4:55 AM 43.0 °F - 41.0 °F 93% 30.09 in 10.0 mi Calm Calm - N/A   Clear
5:55 AM 45.0 °F 41.8 °F 43.0 °F 93% 30.09 in 10.0 mi SW 5.8 mph - N/A   Clear
6:55 AM 46.0 °F 43.9 °F 42.1 °F 86% 30.11 in 10.0 mi SW 4.6 mph - N/A   Clear
7:55 AM 46.9 °F - 42.1 °F 83% 30.14 in 10.0 mi Calm Calm - N/A   Clear
8:55 AM 52.0 °F - 45.0 °F 77% 30.16 in 10.0 mi Calm Calm - N/A   Clear
9:55 AM 63.0 °F - 45.0 °F 52% 30.14 in 10.0 mi Calm Calm - N/A   Clear
10:55 AM 66.9 °F - 46.0 °F 47% 30.13 in 10.0 mi Calm Calm - N/A   Clear
11:55 AM 73.9 °F - 44.1 °F 34% 30.12 in 10.0 mi South 5.8 mph - N/A   Clear
12:55 PM 78.1 °F - 42.1 °F 28% 30.09 in 10.0 mi South 9.2 mph - N/A   Clear
1:55 PM 82.9 °F - 41.0 °F 23% 30.06 in 10.0 mi South 10.4 mph - N/A   Clear
2:55 PM 82.9 °F - 37.9 °F 20% 30.04 in 10.0 mi South 12.7 mph - N/A   Clear
3:55 PM 84.0 °F - 37.0 °F 19% 30.02 in 10.0 mi SSE 15.0 mph - N/A   Clear
5:55 PM 86.0 °F - 33.8 °F 15% 30.01 in 10.0 mi SW 9.2 mph - N/A   Clear
6:55 PM 77.0 °F - 45.0 °F 32% 29.98 in 10.0 mi South 6.9 mph - N/A   Clear
7:55 PM 66.9 °F - 43.0 °F 42% 30.00 in 10.0 mi SSW 5.8 mph - N/A   Clear
8:55 PM 60.1 °F - 43.0 °F 53% 30.02 in 10.0 mi SSE 3.5 mph - N/A   Clear
9:55 PM 57.2 °F - 41.0 °F 55% 30.03 in 10.0 mi Calm Calm - N/A   Clear
10:55 PM 52.0 °F - 43.0 °F 71% 30.02 in 10.0 mi SW 4.6 mph - N/A   Clear
11:55 PM 48.2 °F - 39.2 °F 71% 30.05 in 10.0 mi Calm Calm - N/A   Clear